START_TIME,STEP,MOV.,M15,t_acc.,M20,t_acc.
1979-07-15 18:00:44.110 ,0,1,0.,24.0,0.,24.0
1979-07-15 18:01:08.110 ,4,1,0.,24.0,0.,24.0
1979-07-15 18:01:32.110 ,7,1,0.,24.0,0.,24.0
1979-07-15 18:01:56.110 ,3,1,0.,24.0,0.,24.0
1979-07-15 18:02:20.110 ,0,1,0.,24.0,0.,24.0
1979-07-15 18:02:44.110 ,4,1,0.,24.0,0.,24.0
1979-07-15 18:03:08.110 ,7,1,0.,24.0,0.,24.0
1979-07-15 18:03:32.110 ,3,1,0.,24.0,0.,24.0
1979-07-15 18:03:56.110 ,0,1,0.,24.0,0.,24.0
1979-07-15 18:04:20.110 ,4,1,0.,24.0,0.,24.0
1979-07-15 18:04:44.110 ,7,1,0.,24.0,0.,24.0
1979-07-15 18:05:08.110 ,3,1,0.,24.0,0.,24.0
1979-07-15 18:05:32.110 ,0,1,0.,24.0,0.,24.0
1979-07-15 18:06:20.110 ,0,0,0.,24.0,0.,24.0
1979-07-15 18:06:44.110 ,5,1,0.,24.0,0.,24.0
1979-07-15 18:07:08.110 ,5,0,0.,24.0,0.,24.0
1979-07-15 18:07:32.110 ,4,1,0.,24.0,0.,24.0
1979-07-15 18:07:56.110 ,4,0,0.,24.0,0.,24.0
1979-07-15 18:08:20.110 ,3,1,0.,24.0,0.,24.0
1979-07-15 18:08:44.110 ,3,0,0.,24.0,0.,24.0
1979-07-15 18:09:08.110 ,2,1,0.,24.0,0.,24.0
1979-07-15 18:09:32.110 ,2,0,0.,24.0,0.,24.0
1979-07-15 18:09:56.110 ,1,1,0.,24.0,0.,24.0
1979-07-15 18:10:20.110 ,0,0,0.,24.0,0.,24.0
1979-07-15 18:11:15.910 ,0,0,0.,24.0,0.,24.0
1979-07-15 18:11:32.110 ,0,1,0.,24.0,0.,24.0
1979-07-15 18:11:56.110 ,0,0,0.,24.0,0.,24.0
1979-07-15 18:12:20.110 ,1,1,0.,24.0,0.,24.0
1979-07-15 18:12:44.110 ,1,0,0.,24.0,0.,24.0
1979-07-15 18:13:08.110 ,2,1,0.,24.0,0.,24.0
1979-07-15 18:13:32.110 ,2,0,0.,24.0,0.,24.0
1979-07-15 18:13:56.110 ,3,1,0.,24.0,0.,24.0
1979-07-15 18:14:20.110 ,3,0,0.,24.0,0.,24.0
1979-07-15 18:14:44.110 ,4,1,0.,24.0,0.,24.0
1979-07-15 18:15:08.110 ,4,0,0.,24.0,0.,24.0
1979-07-15 18:15:32.110 ,5,1,0.,24.0,0.,24.0
1979-07-15 18:15:56.110 ,5,0,0.,24.0,0.,24.0
1979-07-15 18:16:20.110 ,6,1,0.,24.0,0.,24.0
1979-07-15 18:17:08.110 ,7,1,0.,24.0,0.,24.0
1979-07-15 18:17:32.110 ,7,0,0.,24.0,0.,24.0
1979-07-15 18:17:56.110 ,7,1,0.,24.0,0.,24.0
1979-07-15 18:18:20.110 ,7,0,0.,24.0,0.,24.0
1979-07-15 18:18:44.110 ,6,1,0.,24.0,0.,24.0
1979-07-15 18:19:08.110 ,6,0,0.,24.0,0.,24.0
1979-07-15 18:19:32.110 ,5,1,0.,24.0,0.,24.0
1979-07-15 18:19:56.110 ,5,0,0.,24.0,0.,24.0
1979-07-15 18:20:20.110 ,4,1,0.,24.0,0.,24.0
1979-07-15 18:20:44.110 ,4,0,0.,24.0,0.,24.0
1979-07-15 18:21:08.110 ,3,1,0.,24.0,0.,24.0
1979-07-15 18:21:32.110 ,3,0,0.,24.0,0.,24.0
1979-07-15 18:21:56.110 ,2,1,0.,24.0,0.,24.0
1979-07-15 18:22:20.110 ,2,0,0.,24.0,0.,24.0
1979-07-15 18:22:44.110 ,1,1,0.,24.0,0.,24.0
1979-07-15 18:23:08.110 ,1,0,0.,24.0,0.,24.0
1979-07-15 18:24:20.110 ,0,1,0.,24.0,0.,24.0
1979-07-15 18:24:44.110 ,0,0,0.,24.0,0.,24.0
1979-07-15 18:25:08.110 ,1,1,0.,24.0,0.,24.0
1979-07-15 18:25:32.110 ,1,0,0.,24.0,0.,24.0
1979-07-15 18:25:56.110 ,2,1,0.,24.0,0.,24.0
1979-07-15 18:26:20.110 ,2,0,0.,24.0,0.,24.0
1979-07-15 18:26:44.110 ,3,1,0.,24.0,0.,24.0
1979-07-15 18:27:08.110 ,3,0,0.,24.0,0.,24.0
1979-07-15 18:27:32.110 ,4,1,0.,24.0,0.,24.0
1979-07-15 18:27:56.110 ,4,0,0.,24.0,0.,24.0
1979-07-15 18:28:20.110 ,5,1,0.,24.0,0.,24.0
1979-07-15 18:28:44.110 ,5,0,0.,24.0,0.,24.0
1979-07-15 18:29:08.110 ,6,1,0.,24.0,0.,24.0
1979-07-15 18:29:32.110 ,6,0,0.,24.0,0.,24.0
1979-07-15 18:29:56.110 ,7,1,0.,24.0,0.,24.0
1979-07-15 18:30:20.110 ,7,0,0.,24.0,0.,24.0
1979-07-15 18:30:44.110 ,7,1,0.,24.0,0.,24.0
1979-07-15 18:31:08.110 ,7,0,0.,24.0,0.,24.0
1979-07-15 18:31:32.110 ,6,1,0.,24.0,0.,24.0
1979-07-15 18:31:56.110 ,6,0,0.,24.0,0.,24.0
1979-07-15 18:32:20.110 ,5,1,0.,24.0,0.,24.0
1979-07-15 18:32:44.110 ,5,0,0.,24.0,0.,24.0
1979-07-15 18:33:08.110 ,4,1,0.,24.0,0.,24.0
1979-07-15 18:33:32.110 ,4,0,0.,24.0,0.,24.0
1979-07-15 18:33:56.110 ,3,1,0.,24.0,0.,24.0
1979-07-15 18:34:20.110 ,3,0,0.,24.0,0.,24.0
1979-07-15 18:34:44.110 ,2,1,0.,24.0,0.,24.0
1979-07-15 18:35:08.110 ,2,0,0.,24.0,0.,24.0
1979-07-15 18:35:32.110 ,1,1,0.,24.0,0.,24.0
1979-07-15 18:35:56.110 ,1,0,0.,24.0,0.,24.0
1979-07-15 18:36:20.110 ,0,1,0.,24.0,0.,24.0
1979-07-15 18:36:44.110 ,0,0,0.,24.0,0.,24.0
1979-07-15 18:37:08.110 ,0,1,0.,24.0,0.,24.0
1979-07-15 18:37:32.110 ,0,0,0.,24.0,0.,24.0
1979-07-15 18:37:56.110 ,1,1,0.,24.0,0.,24.0
1979-07-15 18:38:20.110 ,1,0,0.,24.0,0.,24.0
1979-07-15 18:38:44.110 ,2,1,0.,24.0,0.,24.0
1979-07-15 18:39:08.110 ,2,0,0.,24.0,0.,24.0
1979-07-15 18:39:32.110 ,3,1,0.,24.0,0.,24.0
1979-07-15 18:39:56.110 ,3,0,0.,24.0,0.,24.0
1979-07-15 18:40:20.110 ,4,1,0.,24.0,0.,24.0
1979-07-15 18:40:44.110 ,4,0,0.,24.0,0.,24.0
1979-07-15 18:41:08.110 ,5,1,0.,24.0,0.,24.0
1979-07-15 18:41:32.110 ,5,0,0.,24.0,0.,24.0
1979-07-15 18:41:56.110 ,6,1,0.,24.0,0.,24.0
1979-07-15 18:42:20.110 ,6,0,0.,24.0,0.,24.0
1979-07-15 18:42:44.110 ,7,0,0.,24.0,0.,24.0
1979-07-15 18:43:08.110 ,7,0,0.,24.0,0.,24.0
1979-07-15 18:43:32.110 ,3,1,0.,24.0,0.,24.0
1979-07-15 18:43:56.110 ,0,1,0.,24.0,0.,24.0
1979-07-15 18:44:20.110 ,4,1,0.,24.0,0.,24.0
1979-07-15 18:44:44.110 ,7,1,0.,24.0,0.,24.0
1979-07-15 18:45:08.110 ,3,1,0.,24.0,0.,24.0
1979-07-15 18:45:32.110 ,0,1,0.,24.0,0.,24.0
1979-07-15 18:45:56.110 ,4,1,0.,24.0,0.,24.0
1979-07-15 18:46:44.110 ,3,1,0.,24.0,0.,24.0
1979-07-15 18:47:08.110 ,0,1,0.,24.0,0.,24.0
1979-07-15 18:47:32.110 ,4,1,0.,24.0,0.,24.0
1979-07-15 18:47:56.110 ,7,1,0.,24.0,0.,24.0
1979-07-15 18:48:20.110 ,3,1,0.,24.0,0.,24.0
1979-07-15 18:48:44.110 ,0,1,0.,24.0,0.,24.0
1979-07-15 18:49:08.110 ,4,1,0.,24.0,0.,24.0
1979-07-15 18:49:32.110 ,7,1,0.,24.0,0.,24.0
1979-07-15 18:49:56.110 ,3,1,0.,24.0,0.,24.0
1979-07-15 18:50:20.110 ,0,1,0.,24.0,0.,24.0
1979-07-15 18:50:44.110 ,4,1,0.,24.0,0.,24.0
1979-07-15 18:51:08.110 ,7,1,0.,24.0,0.,24.0
1979-07-15 18:51:32.110 ,3,1,0.,24.0,0.,24.0
1979-07-15 18:52:20.110 ,4,1,0.,24.0,0.,24.0
1979-07-15 18:52:44.110 ,7,1,0.,24.0,0.,24.0
1979-07-15 18:53:08.110 ,3,1,0.,24.0,0.,24.0
1979-07-15 18:53:32.110 ,0,1,0.,24.0,0.,24.0
1979-07-15 18:53:56.110 ,0,0,0.,24.0,0.,24.0
1979-07-15 18:54:20.110 ,0,0,0.,24.0,0.,24.0
1979-07-15 18:54:44.110 ,5,1,0.,24.0,0.,24.0
1979-07-15 18:55:08.110 ,5,0,0.,24.0,0.,24.0
1979-07-15 18:55:32.110 ,4,1,0.,24.0,0.,24.0
1979-07-15 18:55:56.110 ,4,0,0.,24.0,0.,24.0
1979-07-15 18:56:20.110 ,3,1,0.,24.0,0.,24.0
1979-07-15 18:56:44.110 ,3,0,0.,24.0,0.,24.0
1979-07-15 18:57:08.110 ,2,1,0.,24.0,0.,24.0
1979-07-15 18:57:32.110 ,2,0,0.,24.0,0.,24.0
1979-07-15 18:57:56.110 ,1,1,0.,24.0,0.,24.0
1979-07-15 18:58:20.110 ,1,0,0.,24.0,0.,24.0
1979-07-15 18:58:44.110 ,0,1,0.,24.0,0.,24.0
1979-07-15 18:59:08.110 ,0,0,0.,24.0,0.,24.0
1979-07-15 18:59:32.110 ,0,1,0.,24.0,0.,24.0
1979-07-15 18:59:56.110 ,0,0,0.,24.0,0.,24.0
1979-07-15 19:00:20.110 ,1,1,0.,24.0,0.,24.0
1979-07-15 19:00:44.110 ,1,0,0.,24.0,0.,24.0
1979-07-15 19:01:32.110 ,2,0,0.,24.0,0.,24.0
1979-07-15 19:01:56.110 ,3,1,0.,24.0,0.,24.0
1979-07-15 19:02:20.110 ,3,0,0.,24.0,0.,24.0
1979-07-15 19:02:44.110 ,4,1,0.,24.0,0.,24.0
1979-07-15 19:03:08.110 ,4,0,0.,24.0,0.,24.0
1979-07-15 19:03:32.110 ,5,1,0.,24.0,0.,24.0
1979-07-15 19:03:56.110 ,5,0,0.,24.0,0.,24.0
1979-07-15 19:04:20.110 ,6,1,0.,24.0,0.,24.0
1979-07-15 19:04:44.110 ,6,0,0.,24.0,0.,24.0
1979-07-15 19:05:08.110 ,7,1,0.,24.0,0.,24.0
1979-07-15 19:05:32.110 ,7,0,0.,24.0,0.,24.0
1979-07-15 19:05:56.110 ,7,1,0.,24.0,0.,24.0
1979-07-15 19:06:20.110 ,7,0,0.,24.0,0.,24.0
1979-07-15 19:06:44.110 ,6,1,0.,24.0,0.,24.0
1979-07-15 19:07:08.110 ,6,0,0.,24.0,0.,24.0
1979-07-15 19:07:32.110 ,5,1,0.,24.0,0.,24.0
1979-07-15 19:07:56.110 ,5,0,0.,24.0,0.,24.0
1979-07-15 19:08:20.110 ,4,1,0.,24.0,0.,24.0
1979-07-15 19:08:44.110 ,4,0,0.,24.0,0.,24.0
1979-07-15 19:09:08.110 ,3,1,0.,24.0,0.,24.0
1979-07-15 19:09:56.110 ,2,1,0.,24.0,0.,24.0
1979-07-15 19:10:20.110 ,2,0,0.,24.0,0.,24.0
1979-07-15 19:10:44.110 ,1,1,0.,24.0,0.,24.0
1979-07-15 19:11:08.110 ,1,0,0.,24.0,0.,24.0
1979-07-15 19:11:32.110 ,0,1,0.,24.0,0.,24.0
1979-07-15 19:11:56.110 ,0,0,0.,24.0,0.,24.0
1979-07-15 19:12:20.110 ,0,1,0.,24.0,0.,24.0
1979-07-15 19:12:44.110 ,0,0,0.,24.0,0.,24.0
1979-07-15 19:13:08.110 ,1,1,0.,24.0,0.,24.0
1979-07-15 19:13:32.110 ,1,0,0.,24.0,0.,24.0
1979-07-15 19:13:56.110 ,2,1,0.,24.0,0.,24.0
1979-07-15 19:14:20.110 ,2,0,0.,24.0,0.,24.0
1979-07-15 19:14:44.110 ,3,1,0.,24.0,0.,24.0
1979-07-15 19:15:08.110 ,3,0,0.,24.0,0.,24.0
1979-07-15 19:15:32.110 ,4,1,0.,24.0,0.,24.0
1979-07-15 19:15:56.110 ,4,0,0.,24.0,0.,24.0
1979-07-15 19:16:20.110 ,5,1,0.,24.0,0.,24.0
1979-07-15 19:16:44.110 ,5,0,0.,24.0,0.,24.0
1979-07-15 19:17:08.110 ,6,1,0.,24.0,0.,24.0
1979-07-15 19:17:32.110 ,6,0,0.,24.0,0.,24.0
1979-07-15 19:17:56.110 ,7,1,0.,24.0,0.,24.0
1979-07-15 19:18:20.110 ,7,0,0.,24.0,0.,24.0
1979-07-15 19:18:44.110 ,7,1,0.,24.0,0.,24.0
1979-07-15 19:19:08.110 ,7,0,0.,24.0,0.,24.0
1979-07-15 19:19:32.110 ,0,0,,0,,0
1979-07-15 19:19:56.110 ,0,0,,0,,0
1979-07-15 19:19:56.110 ,6,0,0.,24.0,0.,24.0
1979-07-15 19:20:20.110 ,5,1,0.,24.0,0.,24.0
1979-07-15 19:20:44.110 ,5,0,0.,24.0,0.,24.0
1979-07-15 19:21:08.110 ,4,1,0.,24.0,0.,24.0
1979-07-15 19:21:32.110 ,4,0,0.,24.0,0.,24.0
1979-07-15 19:21:56.110 ,3,1,0.,24.0,0.,24.0
1979-07-15 19:22:20.110 ,3,0,0.,24.0,0.,24.0
1979-07-15 19:22:44.110 ,2,1,0.,24.0,0.,24.0
1979-07-15 19:23:08.110 ,2,0,0.,24.0,0.,24.0
1979-07-15 19:23:32.110 ,1,1,0.,24.0,0.,24.0
1979-07-15 19:23:56.110 ,1,0,0.,24.0,0.,24.0
1979-07-15 19:24:44.110 ,0,0,0.,24.0,0.,24.0
1979-07-15 19:25:08.110 ,0,1,0.,24.0,0.,24.0
1979-07-15 19:25:32.110 ,0,0,0.,24.0,0.,24.0
1979-07-15 19:25:56.110 ,1,1,0.,24.0,0.,24.0
1979-07-15 19:26:20.110 ,1,0,0.,24.0,0.,24.0
1979-07-15 19:26:44.110 ,2,1,0.,24.0,0.,24.0
1979-07-15 19:27:08.110 ,2,0,0.,24.0,0.,24.0
1979-07-15 19:27:32.110 ,3,1,0.,24.0,0.,24.0
1979-07-15 19:27:56.110 ,3,0,0.,24.0,0.,24.0
1979-07-15 19:28:20.110 ,4,1,0.,24.0,0.,24.0
1979-07-15 19:28:44.110 ,4,0,0.,24.0,0.,24.0
1979-07-15 19:29:08.110 ,5,1,0.,24.0,0.,24.0
1979-07-15 19:29:32.110 ,5,0,0.,24.0,0.,24.0
1979-07-15 19:29:56.110 ,6,1,0.,24.0,0.,24.0
1979-07-15 19:30:20.110 ,6,0,0.,24.0,0.,24.0
1979-07-15 19:30:44.110 ,7,0,0.,24.0,0.,24.0
1979-07-15 19:31:08.110 ,7,0,0.,24.0,0.,24.0
1979-07-15 19:31:32.110 ,3,1,0.,24.0,0.,24.0
1979-07-15 19:31:56.110 ,0,1,0.,24.0,0.,24.0
1979-07-15 19:32:20.100 ,4,1,0.,24.0,0.,24.0
1979-07-15 19:32:44.100 ,7,1,0.,24.0,0.,24.0
1979-07-15 19:33:08.100 ,3,1,0.,24.0,0.,24.0
1979-07-15 19:33:32.100 ,0,1,0.,24.0,0.,24.0
1979-07-15 19:33:56.100 ,4,1,0.,24.0,0.,24.0
1979-07-15 19:34:20.100 ,7,1,0.,24.0,0.,24.0
1979-07-15 19:34:44.100 ,3,1,0.,24.0,0.,24.0
1979-07-15 19:35:08.100 ,0,1,0.,24.0,0.,24.0
1979-07-15 19:35:32.100 ,4,1,0.,24.0,0.,24.0
1979-07-15 19:35:56.100 ,7,1,0.,24.0,0.,24.0
1979-07-15 19:36:20.100 ,3,1,0.,24.0,0.,24.0
1979-07-15 19:36:44.100 ,0,1,0.,24.0,0.,24.0
1979-07-15 19:37:08.100 ,4,1,0.,24.0,0.,24.0
1979-07-15 19:37:32.100 ,7,1,0.,24.0,0.,24.0
1979-07-15 19:37:56.100 ,3,1,0.,24.0,0.,24.0
1979-07-15 19:38:20.100 ,0,1,0.,24.0,0.,24.0
1979-07-15 19:38:44.100 ,4,1,0.,24.0,0.,24.0
1979-07-15 19:39:08.100 ,7,1,0.,24.0,0.,24.0
1979-07-15 19:39:32.100 ,3,1,0.,24.0,0.,24.0
1979-07-15 19:39:56.100 ,0,1,0.,24.0,0.,24.0
1979-07-15 19:40:20.100 ,4,1,0.,24.0,0.,24.0
1979-07-15 19:40:44.100 ,7,1,0.,24.0,0.,24.0
1979-07-15 19:41:08.100 ,3,1,0.,24.0,0.,24.0
1979-07-15 19:41:32.100 ,0,1,0.,24.0,0.,24.0
1979-07-15 19:41:56.100 ,0,0,0.,24.0,0.,24.0
1979-07-15 19:42:20.100 ,0,0,0.,24.0,0.,24.0
1979-07-15 19:42:44.100 ,5,1,0.,24.0,0.,24.0
1979-07-15 19:43:08.100 ,5,0,0.,24.0,0.,24.0
1979-07-15 19:43:32.100 ,4,1,0.,24.0,0.,24.0
1979-07-15 19:43:56.100 ,4,0,0.,24.0,0.,24.0
1979-07-15 19:44:20.100 ,3,1,0.,24.0,0.,24.0
1979-07-15 19:44:44.100 ,3,0,0.,24.0,0.,24.0
1979-07-15 19:45:08.100 ,2,1,0.,24.0,0.,24.0
1979-07-15 19:45:32.100 ,2,0,0.,24.0,0.,24.0
1979-07-15 19:45:56.100 ,1,1,0.,24.0,0.,24.0
1979-07-15 19:46:20.100 ,1,0,0.,24.0,0.,24.0
1979-07-15 19:46:44.100 ,0,1,1.,24.0,0.,24.0
1979-07-15 19:47:08.100 ,0,0,0.,24.0,0.,24.0
1979-07-15 19:47:32.100 ,0,1,0.,24.0,0.,24.0
1979-07-15 19:47:56.100 ,0,0,0.,24.0,0.,24.0
1979-07-15 19:48:20.100 ,1,1,0.,24.0,0.,24.0
1979-07-15 19:48:44.100 ,1,0,0.,24.0,0.,24.0
1979-07-15 19:49:08.100 ,2,1,0.,24.0,0.,24.0
1979-07-15 19:49:32.100 ,2,0,0.,24.0,0.,24.0
1979-07-15 19:49:56.100 ,3,1,0.,24.0,0.,24.0
1979-07-15 19:50:20.100 ,3,0,0.,24.0,0.,24.0
1979-07-15 19:50:44.100 ,4,1,0.,24.0,0.,24.0
1979-07-15 19:51:08.100 ,4,0,0.,24.0,0.,24.0
1979-07-15 19:51:32.100 ,5,1,0.,24.0,0.,24.0
1979-07-15 19:51:56.100 ,5,0,0.,24.0,0.,24.0
1979-07-15 19:52:20.100 ,6,1,0.,24.0,0.,24.0
1979-07-15 19:52:44.100 ,6,0,0.,24.0,0.,24.0
1979-07-15 19:53:08.100 ,7,1,0.,24.0,0.,24.0
1979-07-15 19:53:32.100 ,7,0,0.,24.0,0.,24.0
1979-07-15 19:53:56.100 ,7,1,0.,24.0,0.,24.0
1979-07-15 19:54:20.100 ,7,0,0.,24.0,0.,24.0
1979-07-15 19:54:44.100 ,6,1,0.,24.0,0.,24.0
1979-07-15 19:55:08.100 ,6,0,0.,24.0,0.,24.0
1979-07-15 19:55:32.100 ,5,1,0.,24.0,0.,24.0
1979-07-15 19:55:56.100 ,5,0,0.,24.0,0.,24.0
1979-07-15 19:56:20.100 ,4,1,0.,24.0,0.,24.0
1979-07-15 19:56:44.100 ,4,0,0.,24.0,0.,24.0
1979-07-15 19:57:08.100 ,3,1,0.,24.0,0.,24.0
1979-07-15 19:57:32.100 ,3,0,0.,24.0,0.,24.0
1979-07-15 19:57:56.100 ,2,1,0.,24.0,0.,24.0
1979-07-15 19:58:20.100 ,2,0,0.,24.0,0.,24.0
1979-07-15 19:58:44.100 ,1,1,0.,24.0,0.,24.0
1979-07-15 19:59:08.100 ,1,0,0.,24.0,0.,24.0
1979-07-15 19:59:56.100 ,0,0,0.,24.0,0.,24.0
1979-07-15 20:00:20.100 ,0,1,0.,24.0,0.,24.0
1979-07-15 20:00:44.100 ,0,0,0.,24.0,0.,24.0
1979-07-15 20:01:08.100 ,1,1,0.,24.0,0.,24.0
1979-07-15 20:01:32.100 ,1,0,0.,24.0,0.,24.0
1979-07-15 20:01:56.100 ,2,1,0.,24.0,0.,24.0
1979-07-15 20:02:20.100 ,2,0,0.,24.0,0.,24.0
1979-07-15 20:02:44.100 ,3,1,0.,24.0,0.,24.0
1979-07-15 20:03:08.100 ,3,0,0.,24.0,0.,24.0
1979-07-15 20:03:32.100 ,4,1,0.,24.0,0.,24.0
1979-07-15 20:03:56.100 ,4,0,0.,24.0,0.,24.0
1979-07-15 20:04:20.100 ,5,1,0.,24.0,0.,24.0
1979-07-15 20:04:44.100 ,5,0,0.,24.0,0.,24.0
1979-07-15 20:05:08.100 ,6,1,0.,24.0,0.,24.0
1979-07-15 20:05:32.100 ,6,0,0.,24.0,0.,24.0
1979-07-15 20:05:56.100 ,7,1,0.,24.0,0.,24.0
1979-07-15 20:06:20.100 ,7,0,0.,24.0,0.,24.0
1979-07-15 20:06:44.100 ,7,1,0.,24.0,0.,24.0
1979-07-15 20:07:08.100 ,7,0,0.,24.0,0.,24.0
1979-07-15 20:07:32.100 ,6,1,0.,24.0,0.,24.0
1979-07-15 20:07:56.100 ,6,0,0.,24.0,0.,24.0
1979-07-15 20:08:20.100 ,5,1,0.,24.0,0.,24.0
1979-07-15 20:08:44.100 ,5,0,0.,24.0,0.,24.0
1979-07-15 20:09:08.100 ,4,1,0.,24.0,0.,24.0
1979-07-15 20:09:32.100 ,4,0,0.,24.0,0.,24.0
1979-07-15 20:09:56.100 ,3,1,0.,24.0,0.,24.0
1979-07-15 20:10:20.100 ,3,0,0.,24.0,0.,24.0
1979-07-15 20:10:44.100 ,2,1,0.,24.0,0.,24.0
1979-07-15 20:11:08.100 ,2,0,0.,24.0,0.,24.0
1979-07-15 20:11:32.100 ,1,1,0.,24.0,0.,24.0
1979-07-15 20:11:56.100 ,1,0,0.,24.0,0.,24.0
1979-07-15 20:12:20.100 ,0,1,0.,24.0,0.,24.0
1979-07-15 20:12:44.100 ,0,0,0.,24.0,0.,24.0
1979-07-15 20:13:08.100 ,0,1,0.,24.0,0.,24.0
1979-07-15 20:13:32.100 ,0,0,0.,24.0,0.,24.0
1979-07-15 20:13:56.100 ,1,1,0.,24.0,0.,24.0
1979-07-15 20:14:20.100 ,1,0,0.,24.0,0.,24.0
1979-07-15 20:14:44.100 ,2,1,0.,24.0,0.,24.0
1979-07-15 20:15:08.100 ,2,0,0.,24.0,0.,24.0
1979-07-15 20:15:32.100 ,3,1,0.,24.0,0.,24.0
1979-07-15 20:15:56.100 ,3,0,0.,24.0,0.,24.0
1979-07-15 20:16:20.100 ,4,1,0.,24.0,0.,24.0
1979-07-15 20:16:44.100 ,4,0,0.,24.0,0.,24.0
1979-07-15 20:17:08.100 ,5,1,0.,24.0,0.,24.0
1979-07-15 20:17:32.100 ,5,0,0.,24.0,0.,24.0
1979-07-15 20:17:56.100 ,6,1,0.,24.0,0.,24.0
1979-07-15 20:18:44.100 ,7,0,0.,24.0,0.,24.0
1979-07-15 20:19:08.100 ,7,0,0.,24.0,0.,24.0
1979-07-15 20:19:32.100 ,3,1,0.,24.0,0.,24.0
1979-07-15 20:19:56.100 ,0,1,0.,24.0,0.,24.0
1979-07-15 20:20:20.100 ,4,1,0.,24.0,0.,24.0
1979-07-15 20:20:44.100 ,7,1,0.,24.0,0.,24.0
1979-07-15 20:21:08.100 ,3,1,0.,24.0,0.,24.0
1979-07-15 20:21:32.100 ,0,1,0.,24.0,0.,24.0
1979-07-15 20:21:56.100 ,4,1,0.,24.0,0.,24.0
1979-07-15 20:22:20.100 ,7,1,0.,24.0,0.,24.0
1979-07-15 20:22:44.100 ,3,1,0.,24.0,0.,24.0
1979-07-15 20:23:08.100 ,0,1,0.,24.0,0.,24.0
1979-07-15 20:23:32.100 ,4,1,0.,24.0,0.,24.0
1979-07-15 20:23:56.100 ,7,1,0.,24.0,0.,24.0
1979-07-15 20:24:20.100 ,3,1,0.,24.0,0.,24.0
1979-07-15 20:24:44.100 ,0,1,0.,24.0,0.,24.0
1979-07-15 20:25:08.100 ,4,1,0.,24.0,0.,24.0
1979-07-15 20:25:32.100 ,7,1,0.,24.0,0.,24.0
1979-07-15 20:25:56.100 ,3,1,0.,24.0,0.,24.0
1979-07-15 20:26:20.100 ,0,1,0.,24.0,0.,24.0
1979-07-15 20:26:44.100 ,4,1,0.,24.0,0.,24.0
1979-07-15 20:27:08.100 ,7,1,0.,24.0,0.,24.0
1979-07-15 20:27:32.100 ,3,1,0.,24.0,0.,24.0
1979-07-15 20:27:56.100 ,0,1,0.,24.0,0.,24.0
1979-07-15 20:29:08.100 ,3,1,0.,24.0,0.,24.0
1979-07-15 20:29:32.100 ,0,1,0.,24.0,0.,24.0
1979-07-15 20:29:56.100 ,0,0,0.,24.0,0.,24.0
1979-07-15 20:30:20.100 ,0,0,0.,24.0,0.,24.0
1979-07-15 20:30:20.100 ,0,0,0.,24.0,0.,24.0
1979-07-15 20:30:44.100 ,5,1,0.,24.0,0.,24.0
1979-07-15 20:31:08.100 ,5,0,0.,24.0,0.,24.0
1979-07-15 20:32:20.100 ,0,0,0.,24.0,0.,24.0
1979-07-15 20:32:44.100 ,0,0,0.,24.0,0.,24.0
1979-07-15 20:33:08.100 ,2,1,0.,24.0,0.,24.0
1979-07-15 20:33:32.100 ,2,0,0.,24.0,0.,24.0
1979-07-15 20:33:56.100 ,1,1,0.,24.0,0.,24.0
1979-07-15 20:34:20.100 ,1,0,0.,24.0,0.,24.0
1979-07-15 20:34:44.100 ,0,1,0.,24.0,0.,24.0
1979-07-15 20:35:08.100 ,0,0,0.,24.0,0.,24.0
1979-07-15 20:35:32.100 ,0,1,0.,24.0,0.,24.0
1979-07-15 20:35:56.100 ,0,0,0.,24.0,0.,24.0
1979-07-15 20:36:20.100 ,1,1,0.,24.0,0.,24.0
1979-07-15 20:36:44.100 ,1,0,0.,24.0,0.,24.0
1979-07-15 20:37:08.100 ,2,1,0.,24.0,0.,24.0
1979-07-15 20:37:32.100 ,2,0,0.,24.0,0.,24.0
1979-07-15 20:37:56.100 ,3,1,0.,24.0,0.,24.0
1979-07-15 20:38:20.100 ,3,0,0.,24.0,0.,24.0
1979-07-15 20:38:44.100 ,4,1,0.,24.0,0.,24.0
1979-07-15 20:39:08.100 ,4,0,0.,24.0,0.,24.0
1979-07-15 20:39:32.100 ,5,1,0.,24.0,0.,24.0
1979-07-15 20:39:56.100 ,5,0,0.,24.0,0.,24.0
1979-07-15 20:40:20.100 ,6,1,0.,24.0,0.,24.0
1979-07-15 20:40:44.100 ,6,0,0.,24.0,0.,24.0
1979-07-15 20:41:08.100 ,7,1,0.,24.0,0.,24.0
1979-07-15 20:41:32.100 ,7,0,0.,24.0,0.,24.0
1979-07-15 20:41:56.100 ,7,1,0.,24.0,0.,24.0
1979-07-15 20:42:20.100 ,7,0,0.,24.0,0.,24.0
1979-07-15 20:42:44.100 ,6,1,0.,24.0,0.,24.0
1979-07-15 20:43:08.100 ,6,0,0.,24.0,0.,24.0
1979-07-15 20:43:32.100 ,5,1,0.,24.0,0.,24.0
1979-07-15 20:43:56.100 ,5,0,0.,24.0,0.,24.0
1979-07-15 20:44:20.100 ,4,1,0.,24.0,0.,24.0
1979-07-15 20:44:44.100 ,4,0,0.,24.0,0.,24.0
1979-07-15 20:45:08.100 ,3,1,0.,24.0,0.,24.0
1979-07-15 20:45:32.100 ,3,0,0.,24.0,0.,24.0
1979-07-15 20:45:56.100 ,2,1,0.,24.0,0.,24.0
1979-07-15 20:46:20.100 ,2,0,0.,24.0,0.,24.0
1979-07-15 20:46:44.100 ,1,1,0.,24.0,0.,24.0
1979-07-15 20:47:08.100 ,1,0,0.,24.0,0.,24.0
1979-07-15 20:47:32.100 ,0,1,0.,24.0,0.,24.0
1979-07-15 20:47:56.100 ,0,0,0.,24.0,0.,24.0
1979-07-15 20:48:20.100 ,0,1,0.,24.0,0.,24.0
1979-07-15 20:48:44.100 ,0,0,1.,24.0,0.,24.0
1979-07-15 20:49:08.100 ,1,1,0.,24.0,0.,24.0
1979-07-15 20:49:32.100 ,1,0,0.,24.0,0.,24.0
1979-07-15 20:49:56.100 ,2,1,0.,24.0,0.,24.0
1979-07-15 20:50:20.100 ,2,0,0.,24.0,0.,24.0
1979-07-15 20:50:44.100 ,3,1,0.,24.0,0.,24.0
1979-07-15 20:51:08.100 ,3,0,0.,24.0,0.,24.0
1979-07-15 20:51:32.100 ,4,1,0.,24.0,0.,24.0
1979-07-15 20:51:56.100 ,4,0,0.,24.0,0.,24.0
1979-07-15 20:52:20.100 ,5,1,0.,24.0,0.,24.0
1979-07-15 20:52:44.100 ,5,0,0.,24.0,0.,24.0
1979-07-15 20:53:08.100 ,6,1,0.,24.0,0.,24.0
1979-07-15 20:53:32.100 ,6,0,0.,24.0,0.,24.0
1979-07-15 20:53:56.100 ,7,1,0.,24.0,0.,24.0
1979-07-15 20:54:20.100 ,7,0,0.,24.0,0.,24.0
1979-07-15 20:54:44.100 ,7,1,0.,24.0,0.,24.0
1979-07-15 20:55:08.100 ,7,0,0.,24.0,0.,24.0
1979-07-15 20:55:32.100 ,6,1,0.,24.0,0.,24.0
1979-07-15 20:55:56.100 ,6,0,0.,24.0,0.,24.0
1979-07-15 20:56:20.100 ,5,1,0.,24.0,0.,24.0
1979-07-15 20:56:44.100 ,5,0,0.,24.0,0.,24.0
1979-07-15 20:57:08.100 ,4,1,0.,24.0,0.,24.0
1979-07-15 20:57:32.100 ,4,0,0.,24.0,0.,24.0
1979-07-15 20:57:56.100 ,3,1,0.,24.0,0.,24.0
1979-07-15 20:58:20.100 ,3,0,0.,24.0,0.,24.0
1979-07-15 20:58:44.100 ,2,1,0.,24.0,0.,24.0
1979-07-15 20:59:08.100 ,2,0,0.,24.0,0.,24.0
1979-07-15 20:59:32.100 ,1,1,0.,24.0,0.,24.0
1979-07-15 20:59:56.100 ,1,0,0.,24.0,0.,24.0
1979-07-15 21:00:20.100 ,0,1,0.,24.0,0.,24.0
